Location: Cerezo de Arriba
(41.2389°N, 3.5585°W)
Time: 03:29:40
(UTC+00:00)

NOSS 3-1 (C) - Pass Details

Date: 19 May 2025
Orbit: 625 x 1577 km, 63.4° (Epoch: 18 June)

Event Time Altitude Azimuth Distance (km) Brightness Sun altitude
Rises 22:04:19 0° 236° (SW) 2,944 6.0 -22.1°
Reaches altitude 10° 22:06:35 10° 244° (WSW) 2,090 5.3 -22.4°
Maximum altitude 22:10:59 40° 315° (NW) 1,082 4.2 -22.8°
Drops below altitude 10° 22:16:13 10° 24° (NNE) 2,488 6.1 -23.3°
Sets 22:19:09 0° 32° (NNE) 3,583 6.9 -23.5°
